Location: Unspecified
(0.0000°N, 0.0000°E)
Time: 18:11:42
(UTC+00:00)

FREGAT DEB - Visible Passes

Search period start: 19 April 2026 00:00
Search period end: 29 April 2026 00:00
Orbit: 616 x 3680 km, 51.4° (Epoch: 20 August)

Date Brightness Start Highest point End Pass type
(mag) Time Alt. Az. Time Alt. Az. Time Alt. Az.
19 Apr ? 01:45:01 10° NNE 01:50:51 15° ENE 01:57:34 10° E visible
19 Apr ? 03:44:28 10° NNW 03:56:26 75° ENE 04:12:21 10° SE visible
20 Apr ? 01:37:19 10° NNE 01:43:56 17° ENE 01:51:46 10° E visible
20 Apr ? 03:37:32 10° NNW 03:49:27 81° ENE 04:05:25 10° SE visible
21 Apr ? 01:32:15 15° NNE 01:36:55 19° ENE 01:45:42 10° E visible
21 Apr ? 03:32:01 16° NNW 03:42:24 87° ENE 03:58:22 10° SE visible
22 Apr ? 01:29:00 21° NE 01:29:51 22° ENE 01:39:25 10° ESE visible
22 Apr ? 03:28:42 36° NW 03:35:17 87° WSW 03:51:14 10° SSE visible
22 Apr ? 05:32:51 10° W 05:43:10 24° SW 05:54:48 10° S visible
23 Apr ? 01:25:07 23° ENE 01:25:07 23° ENE 01:32:56 10° ESE visible
23 Apr ? 03:24:46 59° NW 03:28:09 81° SW 03:44:01 10° SSE visible
23 Apr ? 05:26:31 10° W 05:36:12 22° SW 05:47:04 10° S visible
24 Apr ? 01:20:44 21° E 01:20:44 21° E 01:26:18 10° ESE visible
24 Apr ? 03:20:21 74° WSW 03:20:57 75° SW 03:36:42 10° SSE visible
24 Apr ? 05:20:15 10° W 05:29:12 19° SW 05:39:11 10° S visible
25 Apr ? 01:15:58 18° ESE 01:15:58 18° ESE 01:19:31 10° ESE visible
25 Apr ? 03:15:33 64° SSW 03:15:33 64° SSW 03:29:19 10° SSE visible
25 Apr ? 05:15:08 12° WSW 05:22:10 17° SW 05:31:07 10° S visible
26 Apr ? 01:10:50 14° ESE 01:10:50 14° ESE 01:12:36 10° ESE visible
26 Apr ? 03:10:24 50° S 03:10:24 50° S 03:21:48 10° SSE visible
26 Apr ? 05:09:58 12° WSW 05:15:05 15° SW 05:22:50 10° SSW visible
27 Apr ? 01:05:24 10° ESE 01:05:24 10° ESE 01:05:33 10° ESE visible
27 Apr ? 03:04:57 39° S 03:04:57 39° S 03:14:14 10° SSE visible
27 Apr ? 05:04:29 12° WSW 05:07:59 13° SW 05:14:13 10° SSW visible
28 Apr ? 02:59:12 31° S 02:59:12 31° S 03:06:33 10° SSE visible
28 Apr ? 04:58:43 11° SW 05:00:50 11° SW 05:05:01 10° SSW visible
